Home   Weather   Asuncion   Past weeks
Flag for Paraguay

Past Weather in Asuncion, Paraguay — Yesterday and Last 2 Weeks

Now
61 °F

Sunny.


Feels Like: 61 °F
Forecast: 86 / 58 °F
Wind: No wind

Location: Asuncion / Aeropuerto

Current Time: Oct 23, 2019 at 8:01:58 am

Latest Report: Oct 23, 2019 at 7:00 am


Visibility: 10 mi

Pressure: 29.95 "Hg

Humidity: 72%

Dew Point: 52 °F

Location of AsuncionLocation

Past Weather in Asuncion — Graph

°F

Asuncion Temperature Yesterday

Maximum temperature yesterday: 81 °F (at 4:00 pm)
Minimum temperature yesterday: 55 °F (at 5:00 am)
Average temperature yesterday: 68 °F

High & Low Weather Summary for the Past Weeks

 TemperatureHumidityPressure
High102 °F (Oct 12, 3:00 pm)100% (Oct 15, 8:00 am)30.15 "Hg (Oct 15, 8:00 am)
Low55 °F (Oct 22, 5:00 am)26% (Oct 13, 4:00 pm)29.65 "Hg (Oct 12, 5:00 pm)
Average75 °F70%29.91 "Hg
* Reported Oct 8 7:00 am — Oct 23 7:00 am, Asuncion. Weather by CustomWeather, © 2019

Note: Actual official high and low records may vary slightly from our data, if they occured in-between our weather recording intervals... More about our weather records

Advertising

Asuncion Weather History for the Previous 24 Hours

Scroll right to see more
 ConditionsComfort  
Time TempWeatherWind HumidityBarometerVisibility
7:00 am
Wed, Oct 23
61 °FSunny.No wind72%29.95 "Hg10 mi
6:00 am55 °FClear.3 mph94%29.92 "Hg10 mi
5:00 am59 °FClear.7 mph88%29.92 "Hg10 mi
4:00 am61 °FClear.8 mph83%29.92 "Hg10 mi
3:00 am63 °FClear.8 mph77%29.92 "Hg10 mi
2:00 am63 °FClear.9 mph77%29.92 "Hg10 mi
1:00 am64 °FClear.9 mph73%29.95 "Hg10 mi
12:00 am64 °FClear.8 mph73%29.95 "Hg10 mi
11:00 pm
Tue, Oct 22
66 °FClear.7 mph68%29.92 "Hg10 mi
10:00 pm68 °FClear.8 mph64%29.89 "Hg10 mi
9:00 pm70 °FClear.10 mph60%29.89 "Hg10 mi
8:00 pm72 °FClear.10 mph57%29.86 "Hg10 mi
7:00 pm75 °FClear.10 mph50%29.86 "Hg10 mi
6:00 pm79 °FSunny.9 mph45%29.89 "Hg10 mi
5:00 pm81 °FSunny.8 mph45%29.89 "Hg10 mi
4:00 pm81 °FSunny.9 mph42%29.92 "Hg10 mi
3:00 pm79 °FSunny.8 mph48%29.95 "Hg10 mi
2:00 pm77 °FPassing clouds.7 mph47%30.01 "HgN/A
1:00 pm75 °FPassing clouds.9 mph47%30.01 "HgN/A
12:00 pm73 °FPassing clouds.6 mph50%30.04 "HgN/A
11:00 am73 °FScattered clouds.6 mph53%30.04 "HgN/A
10:30 am72 °FScattered clouds.14 mph53%30.07 "HgN/A
10:00 am70 °FPassing clouds.9 mph57%30.07 "HgN/A
9:30 am68 °FPassing clouds.12 mph64%30.07 "HgN/A
9:00 am66 °FSunny.9 mph73%30.07 "Hg10 mi
8:30 am64 °FSunny.7 mph73%30.07 "Hg10 mi
8:00 am61 °FSunny.7 mph88%30.04 "Hg10 mi
Weather by CustomWeather, © 2019

See weather overview